[[{"header":{"parameterUnit":"m.s-1","parameterCategory":1,"la1":30.2991,"la2":30.254,"lo1":-89.0895,"lo2":-89.0444,"dy":0.0017,"dx":0.0017,"nx":28,"ny":28,"refTime":"2023-08-12T03:00:00:Z","depth":0,"parameterNumber":2,"parameterNumberName":"U-component_of_WINDS"},"data":[0,0,0,0,0,0,0,0,0,0,0,0,0,0,0,0,0,0,0,0,0,0,0,0,0,0,0,0,0,0,0,0,0,0,0,0,0,0,0,0,0,0,0,0,0,0,0,0,0,0,0,0,0,0,0,0,0,0,1.5576,1.5577,0,1.5673,1.5674,1.5675,1.5687,1.5686,1.5685,1.5684,1.5781,1.5785,1.5788,0,0,0,0,0,0,0,0,0,0,0,0,0,1.5399,1.5402,1.5576,1.5578,1.5579,1.5673,1.5674,1.5676,1.5687,1.5686,1.5685,1.5684,1.578,1.5784,1.5789,0,0,0,0,0,0,0,0,0,0,0,0,0,1.5483,1.5403,1.5576,1.5596,1.5599,1.5673,1.5674,1.5676,1.5688,1.5686,1.5685,1.5683,1.5779,1.5784,1.5789,1.5849,0,0,1.5805,1.5807,0,0,0,0,0,0,0,0,1.5479,1.549,1.5592,1.5595,1.5598,1.5667,1.5647,1.5734,1.5688,1.5654,1.5684,1.5683,1.5744,1.5752,1.5773,1.5854,1.5858,1.5805,1.5809,1.5811,1.5812,0,0,0,0,0,0,0,1.5473,1.5486,1.5615,1.5593,1.5597,1.5599,1.561,1.5664,1.5706,1.5657,1.5658,1.5669,1.5746,1.5768,1.5776,1.5859,1.5805,1.581,1.5813,1.5815,1.5991,1.5993,0,0,0,0,0,0,1.5464,1.5481,1.5611,1.5617,1.5534,1.5603,1.5615,1.5646,1.5705,1.5713,1.567,1.5669,1.576,1.577,1.5779,1.5852,1.5811,1.5816,1.5819,1.599,1.5992,1.5994,0,0,0,0,0,0,1.546,1.5475,1.5608,1.555,1.5567,1.5608,1.5642,1.5649,1.5671,1.5715,1.5723,1.5686,1.5759,1.5772,1.5831,1.5855,1.5818,1.5823,1.5988,1.599,1.5993,1.5998,0,0,0,0,0,0,1.5455,1.5474,1.5498,1.555,1.557,1.5659,1.5644,1.5652,1.5681,1.568,1.5732,1.5739,1.5759,1.5823,1.5836,1.5862,1.5827,1.5986,1.5989,1.5992,1.5996,1.6,1.6004,0,0,0,0,0,1.5448,1.5496,1.5499,1.5515,1.5601,1.566,1.5672,1.5694,1.5682,1.5706,1.5734,1.5738,1.5851,1.5829,1.5844,1.5871,1.5985,1.5988,1.5992,1.5994,1.6,1.6004,0,0,0,0,0,0,1.5445,1.5503,1.5507,1.5573,1.5612,1.5662,1.5693,1.57,1.5742,1.574,1.5765,1.5777,1.5835,1.5859,1.5835,1.5931,1.5916,1.5923,1.5913,1.5919,1.5923,1.5915,1.5831,0,0,0,0,0,1.5452,1.5497,1.5544,1.5598,1.5617,1.5652,1.5679,1.5693,1.5733,1.575,1.5782,1.5821,1.5865,1.5893,1.5937,1.6,1.601,1.6026,1.603,1.6033,1.6038,1.6071,1.6078,1.6005,1.6005,1.6005,0,0,1.5467,1.5504,1.553,1.5598,1.563,1.5674,1.5665,1.5713,1.5746,1.5757,1.5814,1.5839,1.5884,1.5945,1.5974,1.5967,1.606,1.6037,1.604,1.6043,1.6075,1.6082,1.6088,1.6008,1.6007,1.6007,0,0,1.5516,1.555,1.5597,1.5628,1.5676,1.5699,1.571,1.5759,1.5776,1.5835,1.5844,1.5882,1.5958,1.5989,1.6015,1.6074,1.6078,1.6087,1.6108,1.614,1.6146,1.6151,1.617,1.6177,1.6092,1.6093,1.6093,0,1.5528,1.5596,1.562,1.5667,1.5695,1.5708,1.5755,1.5784,1.5843,1.5862,1.5854,1.5949,1.598,1.6047,1.6061,1.6083,1.6095,1.6081,1.6143,1.6149,1.6154,1.6172,1.618,1.6093,1.6093,1.6093,1.6093,0,1.5607,1.5654,1.5686,1.5743,1.5775,1.5822,1.5852,1.5882,1.5892,1.5915,1.5973,1.6011,1.6061,1.6079,1.609,1.6147,1.6141,1.6138,1.6123,1.6161,1.6179,1.6186,1.6094,1.6094,1.6094,1.6094,0,0,1.5657,1.5726,1.5737,1.5762,1.5815,1.5851,1.5898,1.5947,1.5971,1.6011,1.605,1.6113,1.611,1.6139,1.6154,1.6182,1.6224,1.6175,1.6176,1.6181,1.6287,1.6287,1.6296,1.6227,1.6229,1.623,1.6282,0,1.5711,1.5795,1.5817,1.5888,1.593,1.5942,1.5982,1.6018,1.604,1.6078,1.6103,1.6146,1.614,1.6157,1.6186,1.6213,1.6245,1.6209,1.6261,1.6263,1.6248,1.6305,1.6307,1.6354,1.629,1.6291,1.6292,0,1.5785,1.5827,1.5901,1.5947,1.5966,1.6002,1.6047,1.6084,1.6125,1.6139,1.6171,1.6182,1.623,1.6213,1.6277,1.6252,1.6275,1.6291,1.6294,1.6298,1.6279,1.631,1.6371,1.6377,1.6303,1.6302,1.6302,0,1.5812,1.5886,1.594,1.5961,1.6017,1.6041,1.6065,1.6105,1.6132,1.6172,1.619,1.6235,1.6259,1.6293,1.6315,1.6302,1.6377,1.6363,1.6389,1.6388,1.6403,1.6402,1.6467,1.642,1.642,1.642,1.642,0,1.5869,1.5913,1.5952,1.5985,1.6035,1.606,1.6108,1.6132,1.6167,1.6204,1.6217,1.6251,1.628,1.6317,1.6336,1.6385,1.6396,1.6408,1.6412,1.6406,1.6404,1.642,1.6416,1.6422,1.6422,1.6421,1.6421,0,1.5906,1.5934,1.5993,1.6041,1.6054,1.6088,1.6128,1.616,1.6182,1.6228,1.6241,1.6276,1.632,1.6347,1.6403,1.6416,1.6469,1.6473,1.6456,1.6457,1.6481,1.6478,1.6557,1.6568,1.6516,1.6516,1.6517,0,1.594,1.5975,1.6025,1.6051,1.6075,1.6117,1.6145,1.617,1.6198,1.6246,1.6272,1.6317,1.6355,1.6425,1.6455,1.6498,1.6502,1.6527,1.6508,1.65,1.65,1.6497,1.65,1.6529,1.653,1.653,1.653,0,1.5996,1.6008,1.6048,1.6093,1.6126,1.6162,1.6198,1.6219,1.6249,1.628,1.6326,1.6356,1.6413,1.6457,1.6502,1.6526,1.6533,1.6536,1.6544,1.6537,1.6525,1.653,1.6463,1.6534,1.6534,1.6533,1.6533,1.6533,1.6032,1.6062,1.6102,1.6146,1.6176,1.6209,1.624,1.6267,1.6305,1.6354,1.6367,1.6414,1.6452,1.6513,1.6538,1.6575,1.6571,1.6582,1.6585,1.6587,1.6587,1.6521,1.6583,1.6583,1.6583,1.6583,1.6583,0,1.6087,1.6113,1.6153,1.6203,1.6237,1.6241,1.6281,1.6309,1.6351,1.6386,1.6422,1.6474,1.6517,1.655,1.6593,1.6616,1.662,1.6626,1.6624,1.6629,1.6589,1.6577,1.6622,1.6622,1.6622,1.6622,1.6622,1.6622,1.6119,1.6171,1.6187,1.6252,1.6278,1.6325,1.6347,1.6377,1.6405,1.6462,1.6498,1.6519,1.6553,1.6599,1.6638,1.6646,1.6661,1.6666,1.6675,1.6637,1.6632,1.6628,1.6617,1.667,1.667,1.6712,1.6712,1.6712]},{"header":{"parameterUnit":"m.s-1","parameterCategory":1,"la1":30.2991,"la2":30.254,"lo1":-89.0895,"lo2":-89.0444,"dy":0.0017,"dx":0.0017,"nx":28,"ny":28,"refTime":"2023-08-12T03:00:00:Z","depth":0,"parameterNumber":3,"parameterNumberName":"V-component_of_WINDS"},"data":[0,0,0,0,0,0,0,0,0,0,0,0,0,0,0,0,0,0,0,0,0,0,0,0,0,0,0,0,0,0,0,0,0,0,0,0,0,0,0,0,0,0,0,0,0,0,0,0,0,0,0,0,0,0,0,0,0,0,5.2468,5.2468,0,5.2465,5.2465,5.2465,5.2369,5.2366,5.2364,5.2361,5.2358,5.236,5.2362,0,0,0,0,0,0,0,0,0,0,0,0,0,5.2389,5.2391,5.2468,5.2468,5.2468,5.2465,5.2465,5.2465,5.2369,5.2366,5.2363,5.236,5.2357,5.236,5.2362,0,0,0,0,0,0,0,0,0,0,0,0,0,5.2408,5.2391,5.2468,5.242,5.2416,5.2465,5.2465,5.2465,5.237,5.2366,5.2362,5.2359,5.2356,5.2359,5.2363,5.2458,0,0,5.2373,5.2374,0,0,0,0,0,0,0,0,5.2407,5.2411,5.2427,5.2423,5.2418,5.2414,5.2436,5.2463,5.2371,5.2387,5.2361,5.2357,5.2379,5.2381,5.2388,5.2458,5.2458,5.2373,5.2375,5.2377,5.2378,0,0,0,0,0,0,0,5.2406,5.2411,5.2467,5.2427,5.2422,5.2398,5.2396,5.244,5.2404,5.2385,5.2378,5.238,5.2376,5.2385,5.2387,5.2458,5.2373,5.2376,5.2378,5.2379,5.2604,5.2608,0,0,0,0,0,0,5.2412,5.241,5.2467,5.2467,5.2404,5.2402,5.2401,5.2419,5.2404,5.2398,5.2383,5.2375,5.2381,5.2384,5.2387,5.2496,5.2377,5.238,5.2382,5.26,5.2605,5.2609,0,0,0,0,0,0,5.241,5.2418,5.2467,5.2437,5.2441,5.2408,5.2429,5.2421,5.243,5.2401,5.2394,5.2399,5.2378,5.2382,5.2441,5.2494,5.2381,5.2384,5.2595,5.2601,5.2607,5.2716,0,0,0,0,0,0,5.2408,5.2418,5.2454,5.2438,5.2443,5.2522,5.2432,5.2423,5.2436,5.2426,5.2414,5.2409,5.2376,5.2436,5.2444,5.2497,5.2387,5.259,5.2598,5.2605,5.2708,5.2725,5.274,0,0,0,0,0,5.2406,5.2485,5.2456,5.2464,5.2488,5.2525,5.2528,5.2488,5.2441,5.2476,5.2458,5.2409,5.2488,5.2443,5.2451,5.2506,5.2587,5.2596,5.2604,5.27,5.2722,5.274,0,0,0,0,0,0,5.2508,5.2482,5.245,5.2527,5.2529,5.2509,5.2553,5.2513,5.2528,5.2518,5.2468,5.2466,5.2532,5.2525,5.2476,5.2597,5.2529,5.254,5.2599,5.2619,5.2635,5.2634,5.239,0,0,0,0,0,5.254,5.2572,5.2548,5.2618,5.262,5.2587,5.2602,5.2571,5.2571,5.2571,5.2557,5.2559,5.2584,5.2601,5.2622,5.2707,5.2702,5.2748,5.2764,5.2778,5.2787,5.283,5.2849,5.2638,5.2638,5.2638,0,0,5.2605,5.2595,5.2618,5.2638,5.2636,5.267,5.2588,5.2628,5.2653,5.2577,5.2631,5.2621,5.262,5.2691,5.2722,5.2687,5.2845,5.2789,5.28,5.2802,5.2841,5.2861,5.2879,5.2644,5.2643,5.2642,0,0,5.2741,5.2737,5.2794,5.2794,5.2792,5.2769,5.2783,5.2769,5.2759,5.2813,5.2756,5.2785,5.2829,5.283,5.2836,5.2972,5.2927,5.298,5.3065,5.3106,5.3123,5.3137,5.3184,5.3202,5.299,5.299,5.2991,0,5.2822,5.2871,5.2828,5.2872,5.2881,5.2815,5.2871,5.2873,5.2879,5.2886,5.2848,5.2901,5.2895,5.2965,5.2998,5.3006,5.3019,5.298,5.3124,5.3138,5.3151,5.3195,5.3213,5.2997,5.2996,5.2995,5.2995,0,5.297,5.3005,5.3052,5.3058,5.3073,5.3123,5.3087,5.3107,5.3075,5.3056,5.3111,5.3102,5.312,5.3135,5.3104,5.32,5.3178,5.3133,5.3063,5.3178,5.3219,5.3236,5.3006,5.3004,5.3002,5.3,0,0,5.3169,5.3151,5.3169,5.317,5.3163,5.3189,5.3236,5.3253,5.3271,5.3277,5.3314,5.3353,5.331,5.3317,5.3286,5.3324,5.343,5.3273,5.3272,5.3301,5.3533,5.3566,5.3586,5.3401,5.3404,5.3406,5.3532,0,5.3299,5.3377,5.334,5.3422,5.3453,5.3391,5.3431,5.3431,5.3415,5.3438,5.342,5.3447,5.339,5.3394,5.3428,5.341,5.3475,5.34,5.3433,5.3435,5.3434,5.3608,5.3643,5.3762,5.3548,5.3551,5.3553,0,5.3461,5.3473,5.3559,5.3545,5.3556,5.3593,5.3605,5.3629,5.3627,5.3613,5.3621,5.3581,5.3625,5.3558,5.3617,5.3566,5.3578,5.3571,5.3575,5.3575,5.35,5.3611,5.38,5.3817,5.3578,5.3576,5.3574,0,5.3595,5.3634,5.3689,5.3692,5.3678,5.3705,5.37,5.3695,5.3707,5.3718,5.3726,5.3742,5.3751,5.3764,5.3729,5.3683,5.3793,5.3723,5.3781,5.3782,5.3805,5.3804,5.3997,5.3816,5.3816,5.3815,5.3815,0,5.3743,5.3797,5.3749,5.3783,5.3842,5.3798,5.3857,5.3846,5.3841,5.3872,5.3819,5.3849,5.3802,5.3827,5.38,5.3852,5.3857,5.3846,5.3838,5.385,5.3851,5.3855,5.3845,5.382,5.3819,5.3818,5.3817,0,5.3902,5.3872,5.3929,5.391,5.3907,5.3951,5.3935,5.3965,5.3945,5.3984,5.3991,5.3959,5.3986,5.3953,5.3977,5.3959,5.4029,5.401,5.403,5.4024,5.4083,5.4078,5.4285,5.4309,5.4114,5.4116,5.4118,0,5.3998,5.4038,5.4024,5.404,5.4038,5.4066,5.4078,5.4037,5.4052,5.4052,5.4083,5.4105,5.412,5.4165,5.4144,5.4161,5.4141,5.4212,5.4143,5.4153,5.414,5.4137,5.414,5.4226,5.4228,5.423,5.4232,0,5.417,5.4153,5.4172,5.4187,5.4203,5.4213,5.4218,5.4235,5.4192,5.4211,5.4237,5.4249,5.4273,5.4295,5.4307,5.4301,5.4259,5.4254,5.4268,5.4279,5.4289,5.4283,5.4067,5.4249,5.4247,5.4246,5.4245,5.4244,5.4299,5.4331,5.4326,5.4349,5.4349,5.4355,5.4382,5.4366,5.4387,5.4403,5.4377,5.441,5.4406,5.4418,5.4417,5.4442,5.4411,5.4432,5.4437,5.4442,5.4451,5.4287,5.4444,5.4444,5.4443,5.4443,5.4442,0,5.4466,5.446,5.4482,5.4491,5.4509,5.4469,5.4473,5.449,5.452,5.452,5.4536,5.4566,5.4587,5.4568,5.4585,5.4608,5.459,5.4614,5.4611,5.461,5.4478,5.4463,5.4629,5.4629,5.4629,5.4629,5.4629,5.4629,5.4555,5.4607,5.459,5.4641,5.4633,5.4665,5.467,5.4676,5.4675,5.4711,5.4728,5.4716,5.4708,5.4724,5.4741,5.4735,5.4743,5.4775,5.4762,5.4638,5.462,5.4602,5.4588,5.4777,5.4778,5.4892,5.4893,5.4893]}]]